Kunde - Kenwood CA US current weather conditions

sailwx.info

Air temperature 13.6° C
Dewpoint 10.9° C

Last reported at 2019-Aug-26 09:00 UTC.
Time now 2019-Aug-26 10:21 UTC

Location: N 38°24' W 122°33'.
View on Google Maps.

See reports from other nearby stations

  
Tides and Currents Weather Stations Pressure Air Temp Water Temp Dewpoint Dewpoint Depression Visibility Wind Speed Wind Dir Waves Ship Positions
date/time (UTC)wind fromknots sea level pressurealtimeterstation pressurevisibilityair tempwater tempwave heightnotes
2019-Aug-26 09:00 13.6
2019-Aug-26 08:00 353 0 gusting 1 14.0
2019-Aug-26 07:45 336 0 gusting 2 14.1
2019-Aug-26 07:30 329 0 gusting 1 14.3
2019-Aug-26 07:00 15.1
2019-Aug-26 06:45 15.5
2019-Aug-26 06:30 15.8
2019-Aug-26 06:00 002 0 gusting 1 16.6
2019-Aug-26 05:45 16.2
2019-Aug-26 05:30 16.1
2019-Aug-26 05:00 16.9
2019-Aug-26 04:45 17.2
2019-Aug-26 04:30 17.6
2019-Aug-26 04:00 19.5
2019-Aug-26 03:45 21.0
2019-Aug-26 03:30 21.0
2019-Aug-26 03:00 23.5
2019-Aug-26 02:45 25.6
2019-Aug-26 02:30 27.6
2019-Aug-26 02:00 284 0 gusting 3 29.6
2019-Aug-26 01:45 286 0 gusting 3 30.2
2019-Aug-26 01:30 290 1 gusting 5 30.8
2019-Aug-26 01:15 249 1 gusting 6 30.9
2019-Aug-26 01:00 243 2 gusting 8 31.0
2019-Aug-26 00:45 261 2 gusting 7 31.4
2019-Aug-26 00:00 237 3 gusting 8 31.3
2019-Aug-25 23:45 239 3 gusting 10 31.8
2019-Aug-25 23:30 232 3 gusting 9 31.9
2019-Aug-25 23:00 240 3 gusting 11 32.7
2019-Aug-25 22:45 233 3 gusting 9 33.1
2019-Aug-25 22:30 236 3 gusting 9 33.1
2019-Aug-25 22:00 243 3 gusting 7 33.2
2019-Aug-25 21:45 230 3 gusting 9 33.2
2019-Aug-25 21:30 236 3 gusting 8 32.9
2019-Aug-25 21:00 237 3 gusting 8 32.6
2019-Aug-25 20:45 299 2 gusting 7 32.6
2019-Aug-25 20:30 325 2 gusting 8 31.9
2019-Aug-25 20:00 338 3 gusting 8 30.9
2019-Aug-25 19:45 337 3 gusting 8 30.4
2019-Aug-25 19:30 314 3 gusting 8 29.7
2019-Aug-25 19:00 298 1 gusting 4 29.3
2019-Aug-25 18:45 346 1 gusting 4 28.8
2019-Aug-25 18:30 325 0 gusting 4 27.9
2019-Aug-25 18:00 003 0 gusting 4 26.5
2019-Aug-25 17:45 342 0 gusting 3 25.8
2019-Aug-25 17:30 335 0 gusting 3 24.2
2019-Aug-25 17:00 22.0
2019-Aug-25 16:45 20.8
2019-Aug-25 16:30 20.1
2019-Aug-25 16:00 340 0 gusting 2 17.7
2019-Aug-25 15:45 337 0 gusting 2 16.7
2019-Aug-25 15:30 321 0 gusting 3 15.6
2019-Aug-25 15:00 328 0 gusting 4 13.8
2019-Aug-25 14:45 330 0 gusting 4 13.1
2019-Aug-25 14:30 340 0 gusting 3 12.5
2019-Aug-25 14:00 11.9
2019-Aug-25 13:45 11.8
2019-Aug-25 13:30 11.9
2019-Aug-25 13:00 11.9
2019-Aug-25 12:45 12.2
2019-Aug-25 12:30 12.2
2019-Aug-25 12:00 12.5
2019-Aug-25 11:45 12.7
2019-Aug-25 11:30 344 0 gusting 2 12.4
2019-Aug-25 11:00 12.5
2019-Aug-25 10:45 12.8
2019-Aug-25 10:30 13.1
2019-Aug-25 10:00 332 0 gusting 3 13.6
2019-Aug-25 09:45 13.5
2019-Aug-25 09:30 13.7
2019-Aug-25 09:00 13.9
2019-Aug-25 08:45 14.1
2019-Aug-25 08:30 331 0 gusting 1 14.4
2019-Aug-25 08:00 344 0 gusting 3 14.7
2019-Aug-25 07:45 14.8
2019-Aug-25 07:30 15.1
2019-Aug-25 07:00 15.6
2019-Aug-25 06:45 15.3
2019-Aug-25 06:30 15.3
2019-Aug-25 06:00 16.4
2019-Aug-25 05:45 17.3
2019-Aug-25 05:30 18.1
2019-Aug-25 05:00 348 0 gusting 6 18.9
2019-Aug-25 04:45 343 1 gusting 4 19.1
2019-Aug-25 04:30 349 0 gusting 4 19.1
2019-Aug-25 04:00 009 0 gusting 3 20.0
2019-Aug-25 03:45 316 0 gusting 4 20.5
2019-Aug-25 03:30 305 1 gusting 5 21.0
2019-Aug-25 03:00 334 2 gusting 7 22.2
2019-Aug-25 02:45 328 2 gusting 6 23.0
2019-Aug-25 02:30 325 2 gusting 6 24.0
2019-Aug-25 02:00 284 0 gusting 4 26.1
2019-Aug-25 01:45 268 0 gusting 5 26.8
2019-Aug-25 01:30 249 1 gusting 5 27.0
2019-Aug-25 01:15 235 2 gusting 7 27.0
2019-Aug-25 01:00 243 2 gusting 8 27.9
2019-Aug-25 00:45 245 2 gusting 8 28.3
2019-Aug-25 00:00 227 4 gusting 8 29.2
2019-Aug-24 23:45 237 3 gusting 8 29.5
2019-Aug-24 23:30 241 3 gusting 9 29.7
2019-Aug-24 23:00 233 4 gusting 11 29.6
2019-Aug-24 22:45 239 3 gusting 10 30.0
2019-Aug-24 22:30 249 3 gusting 8 30.2
2019-Aug-24 22:00 236 3 gusting 11 30.2
2019-Aug-24 21:45 254 3 gusting 11 30.4
2019-Aug-24 21:30 247 3 gusting 10 30.0
2019-Aug-24 21:00 275 4 gusting 11 29.8
2019-Aug-24 20:45 268 2 gusting 7 29.6
2019-Aug-24 20:30 233 3 gusting 8 29.3
2019-Aug-24 20:00 311 3 gusting 10 28.2
2019-Aug-24 19:45 291 2 gusting 8 27.8
2019-Aug-24 19:30 329 2 gusting 8 27.6
2019-Aug-24 19:00 339 4 gusting 8 26.5
2019-Aug-24 18:45 347 3 gusting 6 26.0
2019-Aug-24 18:30 342 4 gusting 7 25.4
2019-Aug-24 18:00 351 2 gusting 6 23.8
2019-Aug-24 17:45 345 3 gusting 6 22.9
2019-Aug-24 17:30 303 3 gusting 6 21.9
2019-Aug-24 17:00 318 1 gusting 5 19.7
2019-Aug-24 16:45 279 0 gusting 5 18.7
2019-Aug-24 16:30 304 1 gusting 5 17.8
2019-Aug-24 16:00 297 1 gusting 6 16.2
2019-Aug-24 15:45 285 2 gusting 7 15.6
2019-Aug-24 15:30 315 0 gusting 6 15.5
2019-Aug-24 15:00 011 0 gusting 3 14.1
2019-Aug-24 14:45 323 0 gusting 3 13.8
2019-Aug-24 14:30 333 0 gusting 3 13.7
2019-Aug-24 14:00 004 0 gusting 5 13.4
2019-Aug-24 13:45 316 0 gusting 3 13.4
2019-Aug-24 13:30 313 0 gusting 5 13.3
2019-Aug-24 13:00 318 0 gusting 5 13.5
2019-Aug-24 12:45 300 0 gusting 5 13.5
2019-Aug-24 12:30 330 0 gusting 5 13.5
2019-Aug-24 12:00 298 1 gusting 7 13.7
2019-Aug-24 11:45 323 1 gusting 7 13.8
2019-Aug-24 11:30 300 1 gusting 7 13.8
2019-Aug-24 11:00 335 0 gusting 4 14.0
2019-Aug-24 10:45 343 0 gusting 4 14.0
2019-Aug-24 10:30 330 0 gusting 6 13.9
2019-Aug-24 10:00 330 1 gusting 7 14.0